Ignacio, CO

12:13 AM MDT on September 26, 2016 (GMT -0600)
Durango-La Plata County

Weather History for KDRO - April, 2014

Change the Weather History Date:

Sunday, April 27, 2014

  Actual Average Record
Temperature  
Mean Temperature 40 °F 48 °F  
Max Temperature 49 °F 64 °F 75 °F (1977)
Min Temperature 30 °F 31 °F 19 °F (1971)
Degree Days  
Heating Degree Days 25 18  
Month to date heating degree days 537 557  
Since 1 July heating degree days 6284 6586  
Cooling Degree Days 0 0  
Month to date cooling degree days 0 0  
Year to date cooling degree days 0 0  
Moisture  
Dew Point 26 °F    
Average Humidity 64    
Maximum Humidity 100    
Minimum Humidity 28    
Precipitation  
Precipitation 0.01 in 0.03 in 0.16 in (1970)
Month to date precipitation 0.19 1.02  
Year to date precipitation 1.72 4.55  
Sea Level Pressure  
Sea Level Pressure 29.68 in    
Wind  
Wind Speed 18 mph (West)    
Max Wind Speed 38 mph    
Max Gust Speed 49 mph    
Visibility 7 miles    
Events Snow    
T = Trace of Precipitation, MM = Missing Value Source: NWS Daily Summary

Daily Weather History Graph

Daily Weather History Graph

Search for Another Location

Airport or City:

Trip Planner

Search our weather history database for the weather conditions in past years. The results will help you decide how hot, cold, wet, or windy it might be!

Date:

Astronomy

Apr. 27, 2014 Rise Set
Actual Time 6:21 AM MDT 7:56 PM MDT
Civil Twilight 5:53 AM MDT 8:24 PM MDT
Nautical Twilight 5:20 AM MDT 8:57 PM MDT
Astronomical Twilight 4:45 AM MDT 9:33 PM MDT
Moon 5:20 AM MDT (4/27) 6:35 PM MDT (4/27)
Length of Visible Light 14h 31m
Length of Day
13h 35m
Waning Crescent, 3% of the Moon is Illuminated
Apr 27
Waning Crescent
Apr 29
New
May 6
First Quarter
May 14
Full
May 21
Last Quarter

Hourly Weather History & Observations

Time (MDT) Temp. Windchill Dew Point Humidity Pressure Visibility Wind Dir Wind Speed Gust Speed Precip Events Conditions
12:19 AM 30.9 °F 23.5 °F 30.0 °F 96% 29.70 in 10.0 mi WSW 8.1 mph - N/A   Overcast
12:34 AM 30.9 °F 23.5 °F 30.0 °F 96% 29.69 in 2.5 mi WSW 8.1 mph - 0.00 in Snow Light Snow
12:42 AM 30.9 °F 23.5 °F 30.0 °F 96% 29.68 in 1.2 mi WSW 8.1 mph - 0.01 in Snow Light Snow
12:49 AM 30.2 °F 23.4 °F 30.2 °F 100% 29.68 in 2.0 mi West 6.9 mph - 0.01 in Snow Light Snow
12:50 AM 30.9 °F 24.3 °F 30.9 °F 100% 29.61 in 2.0 mi West 6.9 mph - 0.01 in Snow Light Snow
1:03 AM 30.9 °F 24.3 °F 30.9 °F 100% 29.68 in 3.0 mi WSW 6.9 mph - 0.00 in Snow Light Snow
1:11 AM 30.9 °F 25.2 °F 30.9 °F 100% 29.67 in 3.0 mi WSW 5.8 mph - 0.00 in Snow Light Snow
1:36 AM 30.9 °F 24.3 °F 30.9 °F 100% 29.67 in 2.0 mi WSW 6.9 mph - 0.00 in Snow Light Snow
1:53 AM 30.9 °F 25.2 °F 30.9 °F 100% 29.60 in 3.0 mi WSW 5.8 mph - 0.00 in Snow Light Snow
2:02 AM 30.9 °F 25.2 °F 30.9 °F 100% 29.67 in 2.5 mi West 5.8 mph - 0.00 in Snow Light Snow
2:22 AM 30.9 °F 25.2 °F 30.9 °F 100% 29.66 in 3.0 mi WSW 5.8 mph - 0.01 in Snow Light Snow
2:35 AM 30.9 °F 22.8 °F 30.9 °F 100% 29.66 in 4.0 mi WSW 9.2 mph - 0.01 in Snow Light Snow
2:53 AM 30.9 °F 23.5 °F 30.9 °F 100% 29.57 in 3.0 mi SW 8.1 mph - 0.01 in Snow Light Snow
3:16 AM 30.9 °F 21.7 °F 30.0 °F 96% 29.65 in 9.0 mi WSW 11.5 mph - 0.00 in   Overcast
3:53 AM 30.9 °F 20.7 °F 30.0 °F 96% 29.65 in 10.0 mi WSW 13.8 mph - 0.00 in   Overcast
4:53 AM 33.1 °F 19.6 °F 30.0 °F 89% 29.65 in 10.0 mi West 27.6 mph 34.5 mph 0.00 in   Partly Cloudy
6:53 AM 33.1 °F 21.9 °F 30.0 °F 89% 29.67 in 10.0 mi WSW 18.4 mph 29.9 mph N/A   Clear
7:53 AM 35.1 °F 25.2 °F 30.9 °F 85% 29.68 in 10.0 mi West 16.1 mph - N/A   Clear
8:53 AM 37.9 °F 28.5 °F 32.0 °F 79% 29.68 in 10.0 mi West 17.3 mph 25.3 mph N/A   Clear
10:53 AM 43.0 °F 33.5 °F 28.0 °F 56% 29.67 in 10.0 mi West 24.2 mph 40.3 mph N/A   Clear
11:53 AM 45.0 °F 36.9 °F 28.0 °F 52% 29.68 in 10.0 mi West 20.7 mph 34.5 mph N/A   Clear
12:53 PM 46.0 °F 36.2 °F 18.0 °F 33% 29.66 in 10.0 mi West 33.4 mph 49.5 mph 0.00 in   Clear
2:53 PM 46.9 °F - 19.0 °F 33% 29.66 in 10.0 mi West 36.8 mph 46.0 mph N/A   Clear
3:53 PM 48.0 °F - 18.0 °F 30% 29.66 in 10.0 mi West 29.9 mph 41.4 mph N/A   Clear
4:53 PM 46.0 °F 37.6 °F 17.1 °F 31% 29.70 in 10.0 mi WNW 24.2 mph 41.4 mph N/A   Partly Cloudy
5:53 PM 46.9 °F - 16.0 °F 29% 29.71 in 10.0 mi WNW 19.6 mph 38.0 mph N/A   Clear
6:53 PM 46.0 °F 37.4 °F 16.0 °F 30% 29.74 in 10.0 mi WNW 25.3 mph 32.2 mph N/A   Partly Cloudy
7:53 PM 42.1 °F 36.1 °F 18.0 °F 38% 29.78 in 10.0 mi NNW 10.4 mph - N/A   Clear
8:53 PM 37.0 °F 32.4 °F 19.9 °F 50% 29.81 in 10.0 mi NNW 5.8 mph - N/A   Clear
9:53 PM 37.9 °F - 19.9 °F 48% 29.82 in 10.0 mi Calm Calm - N/A   Clear
10:53 PM 36.0 °F 32.1 °F 19.0 °F 50% 29.82 in 10.0 mi West 4.6 mph - N/A   Clear